Weather History for Marathon, FL

Change the Weather History Date:

Saturday, October 20, 2012

  Actual Average Record
Temperature  
Mean Temperature 83 °F 80 °F  
Max Temperature 88 °F 85 °F 90 °F (2013)
Min Temperature 77 °F 75 °F 70 °F (2003)
Degree Days  
Heating Degree Days 0 0  
Month to date heating degree days 0 0  
Since 1 July heating degree days 0 0  
Cooling Degree Days 18 15  
Month to date cooling degree days 373 333  
Year to date cooling degree days 4616 4287  
Growing Degree Days 32 (Base 50)    
Moisture  
Dew Point 75 °F    
Average Humidity 78    
Maximum Humidity 91    
Minimum Humidity 65    
Precipitation  
Precipitation 0.00 in 0.12 in 4.33 in (2014)
Month to date precipitation 2.76 3.21  
Year to date precipitation 42.89 39.76  
Snow  
Snow 0.00 in - - ()
Month to date snowfall 0.0  
Since 1 July snowfall 0.0  
Since 1 September snowfall 0.0  
Snow Depth 0.00 in    
Sea Level Pressure  
Sea Level Pressure 29.89 in    
Wind  
Wind Speed 2 mph (NNW)    
Max Wind Speed 9 mph    
Max Gust Speed 15 mph    
Visibility 10 miles    
Events      
T = Trace of Precipitation, MM = Missing Value Source: NWS Daily Summary

Daily Weather History Graph

Daily Weather History Graph

Search for Another Location

Airport:

Trip Planner

Search our weather history database for the weather conditions in past years. The results will help you decide how hot, cold, wet, or windy it might be!

Date:

Astronomy

Oct. 20, 2012 Rise Set
Actual Time 7:24 AM EDT 6:52 PM EDT
Civil Twilight 7:01 AM EDT 7:15 PM EDT
Nautical Twilight 6:35 AM EDT 7:42 PM EDT
Astronomical Twilight 6:08 AM EDT 8:08 PM EDT
Moon 12:42 PM EDT (10/20) 11:52 PM EDT (10/20)
Length of Visible Light 12h 13m
Length of Day
11h 27m
Waxing Crescent, 34% of the Moon is Illuminated
Oct 20
Waxing Crescent
Oct 21
First Quarter
Oct 29
Full
Nov 6
Last Quarter
Nov 13
New

Hourly Weather History & Observations

Time (EDT) Temp. Heat Index Dew Point Humidity Pressure Visibility Wind Dir Wind Speed Gust Speed Precip Events Conditions
12:53 AM 80.1 °F 85.4 °F 75.9 °F 87% 29.89 in 10.0 mi Calm Calm - N/A   Clear
1:53 AM 79.0 °F - 75.9 °F 90% 29.88 in 10.0 mi Calm Calm - N/A   Clear
2:53 AM 78.1 °F - 75.9 °F 93% 29.86 in 10.0 mi Calm Calm - N/A   Clear
3:53 AM 78.1 °F - 75.9 °F 93% 29.86 in 10.0 mi Calm Calm - N/A   Clear
4:53 AM 79.0 °F - 75.9 °F 90% 29.86 in 10.0 mi Calm Calm - N/A   Mostly Cloudy
5:13 AM 78.8 °F - 75.2 °F 89% 29.86 in 10.0 mi Calm Calm - N/A   Scattered Clouds
5:53 AM 78.1 °F - 75.0 °F 90% 29.87 in 9.0 mi Calm Calm - N/A   Clear
6:26 AM 78.8 °F - 77.0 °F 94% 29.88 in 10.0 mi NW 3.5 mph - N/A   Mostly Cloudy
6:53 AM 80.1 °F 85.4 °F 75.9 °F 87% 29.89 in 10.0 mi WNW 4.6 mph - N/A   Overcast
7:53 AM 80.1 °F 85.1 °F 75.0 °F 85% 29.90 in 10.0 mi NNW 3.5 mph - N/A   Clear
8:53 AM 82.9 °F 90.8 °F 75.9 °F 79% 29.91 in 10.0 mi Variable 3.5 mph - N/A   Clear
9:53 AM 84.9 °F 94.1 °F 75.9 °F 74% 29.92 in 10.0 mi Variable 3.5 mph - N/A   Clear
10:53 AM 87.1 °F 97.3 °F 75.9 °F 69% 29.92 in 10.0 mi Variable 4.6 mph - N/A   Clear
11:53 AM 87.1 °F 97.3 °F 75.9 °F 69% 29.92 in 10.0 mi North 5.8 mph - N/A   Partly Cloudy
12:53 PM 86.0 °F 95.1 °F 75.0 °F 70% 29.91 in 10.0 mi North 6.9 mph - N/A   Partly Cloudy
1:53 PM 87.1 °F 96.3 °F 75.0 °F 67% 29.89 in 10.0 mi North 6.9 mph - N/A   Clear
2:53 PM 86.0 °F 95.1 °F 75.0 °F 70% 29.86 in 10.0 mi Variable 4.6 mph - N/A   Clear
3:53 PM 86.0 °F 93.8 °F 73.9 °F 67% 29.85 in 10.0 mi North 5.8 mph - N/A   Clear
4:53 PM 84.9 °F 90.7 °F 72.0 °F 65% 29.84 in 10.0 mi North 4.6 mph - N/A   Clear
5:53 PM 84.0 °F 89.6 °F 72.0 °F 67% 29.84 in 10.0 mi Calm Calm - N/A   Clear
6:53 PM 82.0 °F 86.7 °F 72.0 °F 71% 29.86 in 10.0 mi NW 4.6 mph - N/A   Clear
7:53 PM 82.0 °F 86.7 °F 72.0 °F 71% 29.89 in 10.0 mi Calm Calm - N/A   Partly Cloudy
8:53 PM 81.0 °F 85.8 °F 73.0 °F 77% 29.91 in 10.0 mi Calm Calm - N/A   Clear
9:53 PM 81.0 °F 85.2 °F 72.0 °F 74% 29.92 in 10.0 mi Calm Calm - N/A   Scattered Clouds
10:53 PM 80.1 °F 83.8 °F 72.0 °F 76% 29.93 in 10.0 mi Calm Calm - N/A   Clear
11:53 PM 80.1 °F 84.2 °F 73.0 °F 79% 29.94 in 10.0 mi Calm Calm - N/A   Mostly Cloudy